Weather History for EYVI - April, 2014

Change the Weather History Date:

Sunday, April 13, 2014

  Actual Average Record
Temperature  
Mean Temperature 43 °F -  
Max Temperature 50 °F 57 °F 60 °F (2005)
Min Temperature 36 °F 40 °F 24 °F (1997)
Degree Days  
Heating Degree Days 22    
Moisture  
Dew Point 39 °F    
Average Humidity 85    
Maximum Humidity 100    
Minimum Humidity 63    
Precipitation  
Precipitation 0.02 in 0.07 in - ()
Sea Level Pressure  
Sea Level Pressure 29.88 in    
Wind  
Wind Speed 8 mph ()    
Max Wind Speed 18 mph    
Max Gust Speed -    
Visibility 4.3 miles    
Events Rain    
Averages and records for this station are not official NWS values.
T = Trace of Precipitation, MM = Missing Value Source: Averaged Metar Reports

Daily Weather History Graph

Daily Weather History Graph

Search for Another Location

Airport or City:

Trip Planner

Search our weather history database for the weather conditions in past years. The results will help you decide how hot, cold, wet, or windy it might be!

Date:

Astronomy

Apr. 13, 2014 Rise Set
Actual Time 6:21 AM EEST 8:18 PM EEST
Civil Twilight 5:43 AM EEST 8:56 PM EEST
Nautical Twilight 4:56 AM EEST 9:44 PM EEST
Astronomical Twilight 4:00 AM EEST 10:40 PM EEST
Moon 6:22 PM EEST (4/13) 5:29 AM EEST (4/13)
Length of Visible Light 15h 12m
Length of Day
13h 56m
Waxing Gibbous, 96% of the Moon is Illuminated
Apr 13
Waxing Gibbous
Apr 15
Full
Apr 22
Last Quarter
Apr 29
New
May 7
First Quarter

Hourly Weather History & Observations

Time (EEST) Temp. Windchill Dew Point Humidity Pressure Visibility Wind Dir Wind Speed Gust Speed Precip Events Conditions
12:00 AM 39 °F - 36 °F 86% 30.09 in 9 mi SSE 6.7 mph - -  
12:20 AM 37.4 °F 32.1 °F 37.4 °F 100% 30.04 in 1.4 mi South 6.9 mph - N/A   Mist
12:50 AM 39.2 °F 34.2 °F 37.4 °F 93% 30.04 in 2.5 mi South 6.9 mph - N/A   Mist
1:20 AM 39.2 °F 34.2 °F 37.4 °F 93% 30.04 in 2.5 mi South 6.9 mph - N/A   Mist
1:50 AM 39.2 °F 34.2 °F 37.4 °F 93% 30.01 in 2.5 mi South 6.9 mph - N/A   Mist
2:20 AM 37.4 °F 32.8 °F 35.6 °F 93% 30.01 in 2.5 mi South 5.8 mph - N/A   Mist
2:50 AM 37.4 °F 32.8 °F 35.6 °F 93% 30.01 in 2.5 mi South 5.8 mph - N/A   Mist
3:00 AM 36 °F - 35 °F 93% 30.04 in 5 mi South 4.5 mph - -   Mist
3:20 AM 37.4 °F 32.1 °F 35.6 °F 93% 29.98 in 2.5 mi South 6.9 mph - N/A   Mist
3:50 AM 37.4 °F 32.1 °F 35.6 °F 93% 29.98 in 2.5 mi South 6.9 mph - N/A   Mist
4:20 AM 37.4 °F 32.8 °F 37.4 °F 100% 29.98 in 2.5 mi South 5.8 mph - N/A   Mist
4:50 AM 37.4 °F 33.8 °F 35.6 °F 93% 29.95 in 1.4 mi South 4.6 mph - N/A   Mist
5:20 AM 37.4 °F 32.8 °F 35.6 °F 93% 29.95 in 1.4 mi South 5.8 mph - N/A   Mostly Cloudy
5:50 AM 37.4 °F 32.8 °F 37.4 °F 100% 29.95 in 1.4 mi South 5.8 mph - N/A   Mostly Cloudy
6:00 AM 37 °F - 36 °F 93% 29.99 in 4 mi South 4.5 mph - -   Mist
6:20 AM 39.2 °F 35.0 °F 37.4 °F 93% 29.95 in 1.4 mi South 5.8 mph - N/A   Overcast
6:50 AM 39.2 °F 34.2 °F 37.4 °F 93% 29.95 in 1.6 mi South 6.9 mph - N/A   Overcast
7:20 AM 41.0 °F 36.4 °F 39.2 °F 93% 29.95 in 2.5 mi South 6.9 mph - N/A   Overcast
7:50 AM 41.0 °F 37.1 °F 39.2 °F 93% 29.95 in 2.5 mi South 5.8 mph - N/A   Overcast
8:20 AM 41.0 °F 35.8 °F 39.2 °F 93% 29.95 in 4.3 mi South 8.1 mph - N/A   Overcast
8:50 AM 42.8 °F 37.5 °F 39.2 °F 87% 29.92 in 4.3 mi South 9.2 mph - N/A   Overcast
9:00 AM 42 °F - 39 °F 83% 29.97 in 10 mi South 8.9 mph - -   Partly Cloudy
9:20 AM 42.8 °F 37.0 °F 39.2 °F 87% 29.92 in 4.3 mi SSW 10.4 mph - N/A   Overcast
9:50 AM 42.8 °F 36.6 °F 39.2 °F 87% 29.92 in 4.3 mi South 11.5 mph - N/A   Overcast
10:20 AM 44.6 °F 38.8 °F 39.2 °F 81% 29.92 in 5.0 mi South 11.5 mph - N/A   Overcast
10:50 AM 44.6 °F 38.8 °F 39.2 °F 81% 29.92 in 5.0 mi South 11.5 mph - N/A   Overcast
11:20 AM 44.6 °F 38.4 °F 39.2 °F 81% 29.92 in 5.0 mi SSW 12.7 mph - N/A   Overcast
11:50 AM 46.4 °F 40.7 °F 39.2 °F 76% 29.89 in 5.0 mi SSW 12.7 mph - N/A   Mostly Cloudy
12:00 PM 46 °F - 39 °F 70% 29.93 in 12 mi SSW 11.2 mph - -   Mostly Cloudy
12:20 PM 46.4 °F 41.1 °F 39.2 °F 76% 29.89 in 5.0 mi SSW 11.5 mph - N/A   Mostly Cloudy
12:50 PM 46.4 °F 40.1 °F 39.2 °F 76% 29.89 in 5.0 mi SSW 15.0 mph - N/A   Mostly Cloudy
1:20 PM 46.4 °F 39.8 °F 39.2 °F 76% 29.86 in 5.0 mi South 16.1 mph - N/A   Mostly Cloudy
1:50 PM 48.2 °F - 39.2 °F 71% 29.86 in 5.0 mi South 16.1 mph - N/A   Mostly Cloudy
2:20 PM 48.2 °F - 39.2 °F 71% 29.86 in 6.2 mi South 15.0 mph - N/A   Mostly Cloudy
2:50 PM 46.4 °F 39.2 °F 39.2 °F 76% 29.83 in 6.2 mi South 18.4 mph - N/A   Mostly Cloudy
3:00 PM 48 °F - 39 °F 63% 29.86 in 12 mi South 13.4 mph - -   Scattered Clouds
3:20 PM 46.4 °F 40.4 °F 39.2 °F 76% 29.83 in 6.2 mi South 13.8 mph - N/A   Mostly Cloudy
3:50 PM 48.2 °F - 39.2 °F 71% 29.83 in 6.2 mi South 11.5 mph - N/A   Mostly Cloudy
4:20 PM 48.2 °F - 39.2 °F 71% 29.80 in 6.2 mi South 13.8 mph - N/A   Mostly Cloudy
4:50 PM 48.2 °F - 39.2 °F 71% 29.80 in 6.2 mi South 17.3 mph - N/A   Mostly Cloudy
5:20 PM 48.2 °F - 41.0 °F 76% 29.80 in 5.0 mi South 13.8 mph - N/A   Mostly Cloudy
5:50 PM 48.2 °F - 41.0 °F 76% 29.77 in 5.0 mi South 15.0 mph - N/A   Mostly Cloudy
6:00 PM 48 °F - 39 °F 63% 29.81 in 11 mi South 11.2 mph - -   Scattered Clouds
6:20 PM 48.2 °F - 41.0 °F 76% 29.77 in 5.0 mi South 13.8 mph - N/A   Mostly Cloudy
6:50 PM 46.4 °F 40.1 °F 41.0 °F 81% 29.77 in 5.0 mi South 15.0 mph - N/A   Overcast
7:20 PM 46.4 °F 40.4 °F 41.0 °F 81% 29.77 in 4.3 mi South 13.8 mph - N/A   Overcast
7:50 PM 46.4 °F 40.4 °F 41.0 °F 81% 29.77 in 4.3 mi South 13.8 mph - N/A   Overcast
8:20 PM 44.6 °F 38.8 °F 41.0 °F 87% 29.77 in 2.5 mi South 11.5 mph - N/A Rain Light Rain Showers
8:50 PM 44.6 °F 38.8 °F 41.0 °F 87% 29.74 in 2.5 mi South 11.5 mph - N/A Rain Light Rain Showers
9:00 PM 44 °F - 42 °F 88% 29.79 in 8 mi South 8.9 mph - - Rain Drizzle
9:20 PM 44.6 °F 38.8 °F 41.0 °F 87% 29.74 in 1.8 mi South 11.5 mph - N/A Rain Rain Showers
9:50 PM 42.8 °F 37.0 °F 41.0 °F 93% 29.74 in 1.8 mi South 10.4 mph - N/A Rain Rain Showers
10:20 PM 42.8 °F 37.0 °F 41.0 °F 93% 29.74 in 1.7 mi SSW 10.4 mph - N/A Rain Rain Showers
10:25 PM 42.8 °F 37.0 °F 41.0 °F 93% 29.71 in 1.7 mi South 10.4 mph - N/A   Overcast
10:50 PM 42.8 °F 37.0 °F 41.0 °F 93% 29.71 in 1.7 mi South 10.4 mph - N/A   Overcast
11:20 PM 42.8 °F 35.8 °F 39.2 °F 87% 29.71 in 1.8 mi West 13.8 mph - N/A Rain Light Rain Showers
11:50 PM 41.0 °F 34.7 °F 39.2 °F 93% 29.74 in 2.5 mi West 10.4 mph - N/A Rain Light Rain Showers